,

(GMT )
Al Udeid

Weather History for KQIR - February, 2013

Change the Weather History Date:

Thursday, February 7, 2013

  Actual Average Record
Temperature  
Mean Temperature 64 °F -  
Max Temperature 77 °F - - ()
Min Temperature 50 °F - - ()
Degree Days  
Heating Degree Days 2    
Growing Degree Days 14 (Base 50)    
Moisture  
Dew Point 49 °F    
Average Humidity 78    
Maximum Humidity 94    
Minimum Humidity 23    
Precipitation  
Precipitation 0.00 in - - ()
Sea Level Pressure  
Sea Level Pressure 30.20 in    
Wind  
Wind Speed 3 mph ()    
Max Wind Speed 10 mph    
Max Gust Speed -    
Visibility 4.3 miles    
Events Fog    
Averages and records for this station are not official NWS values.
T = Trace of Precipitation, MM = Missing Value Source: Averaged Metar Reports

Daily Weather History Graph

Daily Weather History Graph

Search for Another Location

Airport or City:

Trip Planner

Search our weather history database for the weather conditions in past years. The results will help you decide how hot, cold, wet, or windy it might be!

Date:

Astronomy

Feb. 07, 2013 Rise Set
Actual Time 6:14 AM +03 5:23 PM +03
Civil Twilight 5:50 AM +03 5:47 PM +03
Nautical Twilight 5:23 AM +03 6:14 PM +03
Astronomical Twilight 4:56 AM +03 6:41 PM +03
Moon 3:22 AM +03 (2/7) 2:30 PM +03 (2/7)
Length of Visible Light 11h 56m
Length of Day
11h 08m
Waning Crescent, 11% of the Moon is Illuminated
Feb 7
Waning Crescent
Feb 10
New
Feb 17
First Quarter
Feb 25
Full
Mar 5
Last Quarter

Hourly Weather History & Observations

Time (+03) Temp. Dew Point Humidity Pressure Visibility Wind Dir Wind Speed Gust Speed Precip Events Conditions
12:55 AM 57.4 °F 51.4 °F 81% 30.18 in 6.2 mi Calm Calm - N/A   Clear
1:55 AM 58.3 °F 52.9 °F 82% 30.19 in 6.2 mi Calm Calm - N/A   Clear
2:55 AM 55.8 °F 51.4 °F 85% 30.19 in 6.2 mi Calm Calm - N/A   Clear
3:55 AM 56.1 °F 52.7 °F 88% 30.19 in 6.2 mi Calm Calm - N/A   Clear
4:55 AM 52.7 °F 50.0 °F 91% 30.20 in 6.2 mi Calm Calm - N/A   Clear
5:55 AM 50.9 °F 48.4 °F 91% 30.21 in 5.0 mi SSE 4.6 mph - N/A   Clear
6:06 AM 51.8 °F 50.0 °F 94% 30.22 in - SE 5.8 mph - N/A   Clear
6:08 AM 51.8 °F 50.0 °F 94% 30.21 in 2.5 mi SE 5.8 mph - N/A   Clear
6:11 AM 51.8 °F 50.0 °F 94% 30.21 in - SSE 5.8 mph - N/A   Clear
6:13 AM 51.8 °F 50.0 °F 94% 30.21 in 1.7 mi SE 5.8 mph - N/A   Clear
6:15 AM 51.8 °F 48.2 °F 88% 30.21 in 1.0 mi SE 4.6 mph - N/A   Clear
6:16 AM 50.0 °F 48.2 °F 94% 30.22 in 0.5 mi SE 4.6 mph - N/A Fog Fog
6:17 AM 50.0 °F 48.2 °F 94% 30.22 in 0.2 mi SE 4.6 mph - N/A Fog Fog
6:18 AM 50.0 °F 48.2 °F 94% 30.22 in - SE 4.6 mph - N/A Fog Fog
6:19 AM 50.0 °F 48.2 °F 94% 30.20 in 3.1 mi SE 3.5 mph - N/A   Clear
6:20 AM 50.0 °F 48.2 °F 94% 30.20 in 3.1 mi SE 4.6 mph - N/A   Clear
6:24 AM 50.0 °F 48.2 °F 94% 30.22 in - SE 4.6 mph - N/A Fog Fog
6:25 AM 50.0 °F 48.2 °F 94% 30.22 in - SE 4.6 mph - N/A Fog Fog
6:26 AM 50.0 °F 48.2 °F 94% 30.22 in - SE 5.8 mph - N/A Fog Fog
6:29 AM 50.0 °F 48.2 °F 94% 30.22 in - SSE 5.8 mph - N/A Fog Fog
6:30 AM 50.0 °F 48.2 °F 94% 30.22 in - SSE 4.6 mph - N/A Fog Fog
6:31 AM 50.0 °F 48.2 °F 94% 30.22 in - SSE 4.6 mph - N/A Fog Fog
6:35 AM 51.8 °F 48.2 °F 88% 30.22 in 0.5 mi SSE 5.8 mph - N/A Fog Fog
6:38 AM 51.8 °F 48.2 °F 88% 30.22 in 0.7 mi SSE 5.8 mph - N/A   Mist
6:39 AM 51.8 °F 48.2 °F 88% 30.22 in 1.0 mi SSE 5.8 mph - N/A   Mist
6:40 AM 51.8 °F 48.2 °F 88% 30.22 in 1.2 mi SSE 5.8 mph - N/A   Partly Cloudy
6:41 AM 51.8 °F 48.2 °F 88% 30.22 in 1.5 mi SSE 5.8 mph - N/A   Partly Cloudy
6:43 AM 51.8 °F 48.2 °F 88% 30.22 in 1.7 mi SSE 5.8 mph - N/A   Partly Cloudy
6:46 AM 50.0 °F 48.2 °F 94% 30.22 in - SSE 5.8 mph - N/A   Partly Cloudy
6:53 AM 50.0 °F 48.2 °F 94% 30.22 in 2.5 mi SSE 4.6 mph - N/A   Clear
6:55 AM 50.9 °F 47.8 °F 89% 30.22 in 2.5 mi SSE 4.6 mph - N/A   Clear
7:14 AM 53.6 °F 48.2 °F 82% 30.22 in - SSE 3.5 mph - N/A   Haze
7:20 AM 53.6 °F 48.2 °F 82% 30.23 in 2.5 mi Calm Calm - N/A   Haze
7:37 AM 53.6 °F 48.2 °F 82% 30.24 in - Calm Calm - N/A   Haze
7:44 AM 53.6 °F 51.8 °F 94% 30.24 in 3.7 mi SE 3.5 mph - N/A   Clear
7:55 AM 55.8 °F 52.0 °F 87% 30.24 in 5.0 mi Calm Calm - N/A   Clear
8:55 AM 63.1 °F 55.2 °F 75% 30.25 in 6.2 mi SSE 6.9 mph - N/A   Clear
9:55 AM 68.4 °F 54.7 °F 62% 30.24 in 6.2 mi SSE 8.1 mph - N/A   Clear
10:55 AM 72.0 °F 47.3 °F 41% 30.22 in 6.2 mi South 3.5 mph - N/A   Clear
11:55 AM 73.8 °F 44.1 °F 34% 30.19 in 6.2 mi Calm Calm - N/A   Clear
12:55 PM 73.4 °F 42.3 °F 33% 30.16 in 6.2 mi Variable 3.5 mph - N/A   Clear
1:55 PM 76.1 °F 40.6 °F 28% 30.14 in 6.2 mi Calm Calm - N/A   Clear
2:55 PM 77.0 °F 36.9 °F 23% 30.12 in 6.2 mi SSE 8.1 mph - N/A   Clear
3:55 PM 76.3 °F 37.8 °F 25% 30.11 in 6.2 mi SSE 3.5 mph - N/A   Clear
4:55 PM 75.7 °F 37.0 °F 25% 30.12 in 6.2 mi Calm Calm - N/A   Clear
5:55 PM 68.9 °F 53.4 °F 58% 30.14 in 6.2 mi East 10.4 mph - N/A   Clear
6:55 PM 66.2 °F 53.6 °F 64% 30.14 in 6.2 mi ENE 8.1 mph - N/A   Clear
7:55 PM 64.2 °F 53.8 °F 69% 30.16 in 6.2 mi ESE 4.6 mph - N/A   Clear
8:55 PM 63.1 °F 54.1 °F 72% 30.16 in 6.2 mi North 4.6 mph - N/A   Clear
9:55 PM 63.3 °F 53.8 °F 71% 30.16 in 6.2 mi ENE 4.6 mph - N/A   Clear
10:55 PM 61.7 °F 53.6 °F 75% 30.14 in 6.2 mi East 4.6 mph - N/A   Clear
11:55 PM 60.6 °F 53.4 °F 77% 30.13 in 6.2 mi East 5.8 mph - N/A   Clear